Year,Month,Day,Hour,Minute,Value (Times are PST for temperature in C)
2008,08,14,00,00,16.70
2008,08,14,00,01,16.70
2008,08,14,00,02,16.70
2008,08,14,00,03,16.70
2008,08,14,00,04,16.70
2008,08,14,00,05,16.70
2008,08,14,00,06,16.70
2008,08,14,00,07,16.70
2008,08,14,00,08,16.70
2008,08,14,00,09,16.70
2008,08,14,00,10,16.70
2008,08,14,00,11,16.60
2008,08,14,00,12,16.60
2008,08,14,00,13,16.60
2008,08,14,00,14,16.60
2008,08,14,00,15,16.60
2008,08,14,00,16,16.60
2008,08,14,00,17,16.60
2008,08,14,00,18,16.50
2008,08,14,00,19,16.40
2008,08,14,00,20,16.40
2008,08,14,00,21,16.40
2008,08,14,00,22,16.40
2008,08,14,00,23,16.40
2008,08,14,00,24,16.40
2008,08,14,00,25,16.40
2008,08,14,00,26,16.40
2008,08,14,00,27,16.40
2008,08,14,00,28,16.40
2008,08,14,00,29,16.40
2008,08,14,00,30,16.30
2008,08,14,00,31,16.30
2008,08,14,00,32,16.30
2008,08,14,00,33,16.30
2008,08,14,00,34,16.30
2008,08,14,00,35,16.30
2008,08,14,00,36,16.20
2008,08,14,00,37,16.20
2008,08,14,00,38,16.20
2008,08,14,00,39,16.20
2008,08,14,00,40,16.20
2008,08,14,00,41,16.20
2008,08,14,00,42,16.20
2008,08,14,00,43,16.10
2008,08,14,00,44,16.10
2008,08,14,00,45,16.10
2008,08,14,00,46,16.10
2008,08,14,00,47,16.10
2008,08,14,00,48,16.10
2008,08,14,00,49,16.10
2008,08,14,00,50,16.10
2008,08,14,00,51,16.10
2008,08,14,00,52,16.10
2008,08,14,00,53,16.10
2008,08,14,00,54,16.10
2008,08,14,00,55,16.10
2008,08,14,00,56,16.00
2008,08,14,00,57,15.90
2008,08,14,00,58,15.90
2008,08,14,00,59,15.90
2008,08,14,01,00,15.90
2008,08,14,01,01,15.90
2008,08,14,01,02,15.80
2008,08,14,01,03,15.80
2008,08,14,01,04,15.80
2008,08,14,01,05,15.80
2008,08,14,01,06,15.80
2008,08,14,01,07,15.80
2008,08,14,01,08,15.80
2008,08,14,01,09,15.80
2008,08,14,01,10,15.80
2008,08,14,01,11,15.80
2008,08,14,01,12,15.80
2008,08,14,01,13,15.80
2008,08,14,01,14,15.80
2008,08,14,01,15,15.80
2008,08,14,01,16,15.80
2008,08,14,01,17,15.80
2008,08,14,01,18,15.80
2008,08,14,01,19,15.70
2008,08,14,01,20,15.70
2008,08,14,01,21,15.70
2008,08,14,01,22,15.70
2008,08,14,01,23,15.70
2008,08,14,01,24,15.70
2008,08,14,01,25,15.70
2008,08,14,01,26,15.70
2008,08,14,01,27,15.70
2008,08,14,01,28,15.70
2008,08,14,01,29,15.70
2008,08,14,01,30,15.60
2008,08,14,01,31,15.60
2008,08,14,01,32,15.60
2008,08,14,01,33,15.60
2008,08,14,01,34,15.60
2008,08,14,01,35,15.60
2008,08,14,01,36,15.60
2008,08,14,01,37,15.60
2008,08,14,01,38,15.60
2008,08,14,01,39,15.60
2008,08,14,01,40,15.60
2008,08,14,01,41,15.60
2008,08,14,01,42,15.60
2008,08,14,01,43,15.60
2008,08,14,01,44,15.60
2008,08,14,01,45,15.60
2008,08,14,01,46,15.60
2008,08,14,01,47,15.60
2008,08,14,01,48,15.60
2008,08,14,01,49,15.60
2008,08,14,01,50,15.60
2008,08,14,01,51,15.50
2008,08,14,01,52,15.50
2008,08,14,01,53,15.50
2008,08,14,01,54,15.50
2008,08,14,01,55,15.50
2008,08,14,01,56,15.40
2008,08,14,01,57,15.40
2008,08,14,01,58,15.40
2008,08,14,01,59,15.40
2008,08,14,02,00,15.40
2008,08,14,02,01,15.40
2008,08,14,02,02,15.30
2008,08,14,02,03,15.30
2008,08,14,02,04,15.30
2008,08,14,02,05,15.30
2008,08,14,02,06,15.30
2008,08,14,02,07,15.30
2008,08,14,02,08,15.30
2008,08,14,02,09,15.30
2008,08,14,02,10,15.30
2008,08,14,02,11,15.30
2008,08,14,02,12,15.30
2008,08,14,02,13,15.30
2008,08,14,02,14,15.30
2008,08,14,02,15,15.30
2008,08,14,02,16,15.30
2008,08,14,02,17,15.30
2008,08,14,02,18,15.30
2008,08,14,02,19,15.30
2008,08,14,02,20,15.30
2008,08,14,02,21,15.30
2008,08,14,02,22,15.30
2008,08,14,02,23,15.30
2008,08,14,02,24,15.30
2008,08,14,02,25,15.30
2008,08,14,02,26,15.30
2008,08,14,02,27,15.30
2008,08,14,02,28,15.30
2008,08,14,02,29,15.30
2008,08,14,02,30,15.30
2008,08,14,02,31,15.20
2008,08,14,02,32,15.20
2008,08,14,02,33,15.20
2008,08,14,02,34,15.20
2008,08,14,02,35,15.20
2008,08,14,02,36,15.20
2008,08,14,02,37,15.20
2008,08,14,02,38,15.20
2008,08,14,02,39,15.20
2008,08,14,02,40,15.20
2008,08,14,02,41,15.20
2008,08,14,02,42,15.20
2008,08,14,02,43,15.20
2008,08,14,02,44,15.20
2008,08,14,02,45,15.20
2008,08,14,02,46,15.20
2008,08,14,02,47,15.20
2008,08,14,02,48,15.20
2008,08,14,02,49,15.20
2008,08,14,02,50,15.20
2008,08,14,02,51,15.10
2008,08,14,02,52,15.10
2008,08,14,02,53,15.10
2008,08,14,02,54,15.10
2008,08,14,02,55,15.10
2008,08,14,02,56,15.00
2008,08,14,02,57,15.00
2008,08,14,02,58,15.00
2008,08,14,02,59,15.00
2008,08,14,03,00,15.00
2008,08,14,03,01,15.00
2008,08,14,03,02,15.00
2008,08,14,03,03,15.00
2008,08,14,03,04,15.00
2008,08,14,03,05,15.00
2008,08,14,03,06,15.00
2008,08,14,03,07,15.00
2008,08,14,03,08,14.90
2008,08,14,03,09,15.00
2008,08,14,03,10,15.00
2008,08,14,03,11,15.10
2008,08,14,03,12,15.10
2008,08,14,03,13,15.10
2008,08,14,03,14,15.10
2008,08,14,03,15,15.10
2008,08,14,03,16,15.10
2008,08,14,03,17,15.10
2008,08,14,03,18,15.10
2008,08,14,03,19,15.10
2008,08,14,03,20,15.10
2008,08,14,03,21,15.10
2008,08,14,03,22,15.10
2008,08,14,03,23,15.10
2008,08,14,03,24,15.10
2008,08,14,03,25,15.10
2008,08,14,03,26,15.10
2008,08,14,03,27,15.10
2008,08,14,03,28,15.10
2008,08,14,03,29,15.10
2008,08,14,03,30,15.10
2008,08,14,03,31,15.10
2008,08,14,03,32,15.20
2008,08,14,03,33,15.20
2008,08,14,03,34,15.20
2008,08,14,03,35,15.20
2008,08,14,03,36,15.20
2008,08,14,03,37,15.20
2008,08,14,03,38,15.20
2008,08,14,03,39,15.20
2008,08,14,03,40,15.20
2008,08,14,03,41,15.20
2008,08,14,03,42,15.30
2008,08,14,03,43,15.20
2008,08,14,03,44,15.20
2008,08,14,03,45,15.20
2008,08,14,03,46,15.20
2008,08,14,03,47,15.10
2008,08,14,03,48,15.10
2008,08,14,03,49,15.00
2008,08,14,03,50,15.00
2008,08,14,03,51,15.00
2008,08,14,03,52,15.00
2008,08,14,03,53,14.90
2008,08,14,03,54,14.90
2008,08,14,03,55,14.90
2008,08,14,03,56,14.90
2008,08,14,03,57,14.90
2008,08,14,03,58,14.90
2008,08,14,03,59,14.90
2008,08,14,04,00,14.90
2008,08,14,04,01,14.90
2008,08,14,04,02,14.90
2008,08,14,04,03,14.90
2008,08,14,04,04,14.80
2008,08,14,04,05,14.80
2008,08,14,04,06,14.80
2008,08,14,04,07,14.80
2008,08,14,04,08,14.80
2008,08,14,04,09,14.70
2008,08,14,04,10,14.70
2008,08,14,04,11,14.70
2008,08,14,04,12,14.60
2008,08,14,04,13,14.60
2008,08,14,04,14,14.60
2008,08,14,04,15,14.60
2008,08,14,04,16,14.60
2008,08,14,04,17,14.50
2008,08,14,04,18,14.50
2008,08,14,04,19,14.50
2008,08,14,04,20,14.50
2008,08,14,04,21,14.50
2008,08,14,04,22,14.40
2008,08,14,04,23,14.40
2008,08,14,04,24,14.40
2008,08,14,04,25,14.40
2008,08,14,04,26,14.30
2008,08,14,04,27,14.30
2008,08,14,04,28,14.30
2008,08,14,04,29,14.30
2008,08,14,04,30,14.30
2008,08,14,04,31,14.20
2008,08,14,04,32,14.20
2008,08,14,04,33,14.20
2008,08,14,04,34,14.20
2008,08,14,04,35,14.20
2008,08,14,04,36,14.20
2008,08,14,04,37,14.30
2008,08,14,04,38,14.30
2008,08,14,04,39,14.30
2008,08,14,04,40,14.30
2008,08,14,04,41,14.30
2008,08,14,04,42,14.30
2008,08,14,04,43,14.30
2008,08,14,04,44,14.30
2008,08,14,04,45,14.30
2008,08,14,04,46,14.30
2008,08,14,04,47,14.30
2008,08,14,04,48,14.40
2008,08,14,04,49,14.40
2008,08,14,04,50,14.40
2008,08,14,04,51,14.40
2008,08,14,04,52,14.40
2008,08,14,04,53,14.30
2008,08,14,04,54,14.30
2008,08,14,04,55,14.30
2008,08,14,04,56,14.30
2008,08,14,04,57,14.30
2008,08,14,04,58,14.30
2008,08,14,04,59,14.30
2008,08,14,05,00,14.30
2008,08,14,05,01,14.30
2008,08,14,05,02,14.30
2008,08,14,05,03,14.30
2008,08,14,05,04,14.30
2008,08,14,05,05,14.30
2008,08,14,05,06,14.30
2008,08,14,05,07,14.30
2008,08,14,05,08,14.30
2008,08,14,05,09,14.30
2008,08,14,05,10,14.20
2008,08,14,05,11,14.20
2008,08,14,05,12,14.20
2008,08,14,05,13,14.20
2008,08,14,05,14,14.20
2008,08,14,05,15,14.20
2008,08,14,05,16,14.20
2008,08,14,05,17,14.20
2008,08,14,05,18,14.20
2008,08,14,05,19,14.20
2008,08,14,05,20,14.20
2008,08,14,05,21,14.20
2008,08,14,05,22,14.20
2008,08,14,05,23,14.20
2008,08,14,05,24,14.20
2008,08,14,05,25,14.20
2008,08,14,05,26,14.20
2008,08,14,05,27,14.30
2008,08,14,05,28,14.30
2008,08,14,05,29,14.30
2008,08,14,05,30,14.30
2008,08,14,05,31,14.30
2008,08,14,05,32,14.20
2008,08,14,05,33,14.20
2008,08,14,05,34,14.20
2008,08,14,05,35,14.20
2008,08,14,05,36,14.20
2008,08,14,05,37,14.20
2008,08,14,05,38,14.20
2008,08,14,05,39,14.20
2008,08,14,05,40,14.20
2008,08,14,05,41,14.20
2008,08,14,05,42,14.20
2008,08,14,05,43,14.20
2008,08,14,05,44,14.20
2008,08,14,05,45,14.20
2008,08,14,05,46,14.20
2008,08,14,05,47,14.20
2008,08,14,05,48,14.20
2008,08,14,05,49,14.20
2008,08,14,05,50,14.20
2008,08,14,05,51,14.10
2008,08,14,05,52,14.10
2008,08,14,05,53,14.10
2008,08,14,05,54,14.10
2008,08,14,05,55,14.10
2008,08,14,05,56,14.10
2008,08,14,05,57,14.10
2008,08,14,05,58,14.00
2008,08,14,05,59,14.00
2008,08,14,06,00,14.00
2008,08,14,06,01,14.00
2008,08,14,06,02,14.00
2008,08,14,06,03,14.00
2008,08,14,06,04,14.00
2008,08,14,06,05,14.00
2008,08,14,06,06,14.00
2008,08,14,06,07,14.00
2008,08,14,06,08,14.00
2008,08,14,06,09,14.00
2008,08,14,06,10,14.00
2008,08,14,06,11,14.00
2008,08,14,06,12,14.00
2008,08,14,06,13,14.00
2008,08,14,06,14,14.00
2008,08,14,06,15,14.00
2008,08,14,06,16,14.00
2008,08,14,06,17,14.00
2008,08,14,06,18,14.00
2008,08,14,06,19,14.00
2008,08,14,06,20,14.00
2008,08,14,06,21,14.00
2008,08,14,06,22,14.10
2008,08,14,06,23,14.10
2008,08,14,06,24,14.10
2008,08,14,06,25,14.10
2008,08,14,06,26,14.10
2008,08,14,06,27,14.10
2008,08,14,06,28,14.10
2008,08,14,06,29,14.10
2008,08,14,06,30,14.10
2008,08,14,06,31,14.10
2008,08,14,06,32,14.10
2008,08,14,06,33,14.10
2008,08,14,06,34,14.10
2008,08,14,06,35,14.10
2008,08,14,06,36,14.10
2008,08,14,06,37,14.20
2008,08,14,06,38,14.20
2008,08,14,06,39,14.20
2008,08,14,06,40,14.20
2008,08,14,06,41,14.20
2008,08,14,06,42,14.20
2008,08,14,06,43,14.20
2008,08,14,06,44,14.20
2008,08,14,06,45,14.20
2008,08,14,06,46,14.20
2008,08,14,06,47,14.30
2008,08,14,06,48,14.30
2008,08,14,06,49,14.30
2008,08,14,06,50,14.40
2008,08,14,06,51,14.40
2008,08,14,06,52,14.40
2008,08,14,06,53,14.50
2008,08,14,06,54,14.50
2008,08,14,06,55,14.60
2008,08,14,06,56,14.60
2008,08,14,06,57,14.70
2008,08,14,06,58,14.70
2008,08,14,06,59,14.80
2008,08,14,07,00,14.80
2008,08,14,07,01,14.80
2008,08,14,07,02,14.80
2008,08,14,07,03,14.90
2008,08,14,07,04,14.90
2008,08,14,07,05,15.00
2008,08,14,07,06,15.00
2008,08,14,07,07,15.10
2008,08,14,07,08,15.10
2008,08,14,07,09,15.20
2008,08,14,07,10,15.20
2008,08,14,07,11,15.30
2008,08,14,07,12,15.30
2008,08,14,07,13,15.30
2008,08,14,07,14,15.40
2008,08,14,07,15,15.50
2008,08,14,07,16,15.50
2008,08,14,07,17,15.60
2008,08,14,07,18,15.60
2008,08,14,07,19,15.70
2008,08,14,07,20,15.80
2008,08,14,07,21,15.80
2008,08,14,07,22,15.80
2008,08,14,07,23,15.80
2008,08,14,07,24,15.90
2008,08,14,07,25,16.00
2008,08,14,07,26,16.10
2008,08,14,07,27,16.10
2008,08,14,07,28,16.20
2008,08,14,07,29,16.30
2008,08,14,07,30,16.40
2008,08,14,07,31,16.40
2008,08,14,07,32,16.60
2008,08,14,07,33,16.60
2008,08,14,07,34,16.70
2008,08,14,07,35,16.70
2008,08,14,07,36,16.80
2008,08,14,07,37,16.90
2008,08,14,07,38,16.90
2008,08,14,07,39,17.00
2008,08,14,07,40,17.00
2008,08,14,07,41,17.10
2008,08,14,07,42,17.20
2008,08,14,07,43,17.20
2008,08,14,07,44,17.30
2008,08,14,07,45,17.40
2008,08,14,07,46,17.50
2008,08,14,07,47,17.70
2008,08,14,07,48,17.80
2008,08,14,07,49,17.90
2008,08,14,07,50,18.00
2008,08,14,07,51,18.10
2008,08,14,07,52,18.20
2008,08,14,07,53,18.30
2008,08,14,07,54,18.30
2008,08,14,07,55,18.40
2008,08,14,07,56,18.50
2008,08,14,07,57,18.50
2008,08,14,07,58,18.60
2008,08,14,07,59,18.70
2008,08,14,08,00,18.80
2008,08,14,08,01,18.90
2008,08,14,08,02,18.90
2008,08,14,08,03,18.90
2008,08,14,08,04,19.10
2008,08,14,08,05,19.10
2008,08,14,08,06,19.10
2008,08,14,08,07,19.20
2008,08,14,08,08,19.30
2008,08,14,08,09,19.30
2008,08,14,08,10,19.40
2008,08,14,08,11,19.50
2008,08,14,08,12,19.50
2008,08,14,08,13,19.60
2008,08,14,08,14,19.70
2008,08,14,08,15,19.80
2008,08,14,08,16,19.90
2008,08,14,08,17,19.90
2008,08,14,08,18,20.10
2008,08,14,08,19,20.10
2008,08,14,08,20,20.20
2008,08,14,08,21,20.40
2008,08,14,08,22,20.50
2008,08,14,08,23,20.70
2008,08,14,08,24,20.70
2008,08,14,08,25,20.80
2008,08,14,08,26,20.90
2008,08,14,08,27,21.00
2008,08,14,08,28,21.00
2008,08,14,08,29,21.10
2008,08,14,08,30,21.20
2008,08,14,08,31,21.20
2008,08,14,08,32,21.20
2008,08,14,08,33,21.20
2008,08,14,08,34,21.10
2008,08,14,08,35,21.10
2008,08,14,08,36,21.00
2008,08,14,08,37,20.90
2008,08,14,08,38,20.80
2008,08,14,08,39,20.80
2008,08,14,08,40,20.70
2008,08,14,08,41,20.70
2008,08,14,08,42,20.60
2008,08,14,08,43,20.60
2008,08,14,08,44,20.60
2008,08,14,08,45,20.60
2008,08,14,08,46,20.60
2008,08,14,08,47,20.60
2008,08,14,08,48,20.60
2008,08,14,08,49,20.60
2008,08,14,08,50,20.60
2008,08,14,08,51,20.60
2008,08,14,08,52,20.50
2008,08,14,08,53,20.50
2008,08,14,08,54,20.50
2008,08,14,08,55,20.50
2008,08,14,08,56,20.50
2008,08,14,08,57,20.60
2008,08,14,08,58,20.60
2008,08,14,08,59,20.70
2008,08,14,09,00,20.80
2008,08,14,09,01,20.90
2008,08,14,09,02,21.00
2008,08,14,09,03,21.00
2008,08,14,09,04,21.10
2008,08,14,09,05,21.20
2008,08,14,09,06,21.30
2008,08,14,09,07,21.40
2008,08,14,09,08,21.60
2008,08,14,09,09,21.60
2008,08,14,09,10,21.80
2008,08,14,09,11,21.90
2008,08,14,09,12,22.00
2008,08,14,09,13,22.20
2008,08,14,09,14,22.30
2008,08,14,09,15,22.40
2008,08,14,09,16,22.50
2008,08,14,09,17,22.60
2008,08,14,09,18,22.80
2008,08,14,09,19,22.90
2008,08,14,09,20,23.00
2008,08,14,09,21,23.10
2008,08,14,09,22,23.20
2008,08,14,09,23,23.30
2008,08,14,09,24,23.30
2008,08,14,09,25,23.30
2008,08,14,09,26,23.30
2008,08,14,09,27,23.30
2008,08,14,09,28,23.40
2008,08,14,09,29,23.50
2008,08,14,09,30,23.60
2008,08,14,09,31,23.70
2008,08,14,09,32,23.70
2008,08,14,09,33,23.90
2008,08,14,09,34,24.00
2008,08,14,09,35,24.10
2008,08,14,09,36,24.10
2008,08,14,09,37,24.10
2008,08,14,09,38,24.10
2008,08,14,09,39,24.10
2008,08,14,09,40,24.10
2008,08,14,09,41,24.20
2008,08,14,09,42,24.30
2008,08,14,09,43,24.40
2008,08,14,09,44,24.50
2008,08,14,09,45,24.50
2008,08,14,09,46,24.50
2008,08,14,09,47,24.60
2008,08,14,09,48,24.60
2008,08,14,09,49,24.70
2008,08,14,09,50,24.80
2008,08,14,09,51,24.80
2008,08,14,09,52,24.80
2008,08,14,09,53,24.80
2008,08,14,09,54,24.80
2008,08,14,09,55,24.80
2008,08,14,09,56,24.70
2008,08,14,09,57,24.80
2008,08,14,09,58,24.80
2008,08,14,09,59,24.90
2008,08,14,10,00,25.00
2008,08,14,10,01,25.00
2008,08,14,10,02,25.10
2008,08,14,10,03,25.10
2008,08,14,10,04,25.10
2008,08,14,10,05,25.10
2008,08,14,10,06,25.10
2008,08,14,10,07,25.10
2008,08,14,10,08,25.10
2008,08,14,10,09,25.00
2008,08,14,10,10,25.00
2008,08,14,10,11,25.00
2008,08,14,10,12,25.00
2008,08,14,10,13,25.10
2008,08,14,10,14,25.10
2008,08,14,10,15,25.10
2008,08,14,10,16,25.20
2008,08,14,10,17,25.20
2008,08,14,10,18,25.20
2008,08,14,10,19,25.20
2008,08,14,10,20,25.30
2008,08,14,10,21,25.30
2008,08,14,10,22,25.30
2008,08,14,10,23,25.30
2008,08,14,10,24,25.30
2008,08,14,10,25,25.30
2008,08,14,10,26,25.30
2008,08,14,10,27,25.40
2008,08,14,10,28,25.40
2008,08,14,10,29,25.30
2008,08,14,10,30,25.30
2008,08,14,10,31,25.20
2008,08,14,10,32,25.10
2008,08,14,10,33,25.10
2008,08,14,10,34,25.10
2008,08,14,10,35,25.10
2008,08,14,10,36,25.10
2008,08,14,10,37,25.10
2008,08,14,10,38,25.10
2008,08,14,10,39,25.10
2008,08,14,10,40,25.10
2008,08,14,10,41,25.10
2008,08,14,10,42,25.10
2008,08,14,10,43,25.10
2008,08,14,10,44,25.10
2008,08,14,10,45,25.10
2008,08,14,10,46,25.20
2008,08,14,10,47,25.40
2008,08,14,10,48,25.50
2008,08,14,10,49,25.60
2008,08,14,10,50,25.80
2008,08,14,10,51,25.90
2008,08,14,10,52,25.90
2008,08,14,10,53,26.00
2008,08,14,10,54,26.00
2008,08,14,10,55,25.90
2008,08,14,10,56,25.90
2008,08,14,10,57,26.00
2008,08,14,10,58,26.00
2008,08,14,10,59,26.00
2008,08,14,11,00,26.00
2008,08,14,11,01,26.00
2008,08,14,11,02,26.00
2008,08,14,11,03,26.00
2008,08,14,11,04,26.00
2008,08,14,11,05,26.10
2008,08,14,11,06,26.20
2008,08,14,11,07,26.30
2008,08,14,11,08,26.30
2008,08,14,11,09,26.30
2008,08,14,11,10,26.30
2008,08,14,11,11,26.20
2008,08,14,11,12,26.20
2008,08,14,11,13,26.20
2008,08,14,11,14,26.10
2008,08,14,11,15,26.00
2008,08,14,11,16,26.00
2008,08,14,11,17,26.00
2008,08,14,11,18,26.00
2008,08,14,11,19,26.00
2008,08,14,11,20,26.10
2008,08,14,11,21,26.00
2008,08,14,11,22,26.00
2008,08,14,11,23,25.90
2008,08,14,11,24,26.00
2008,08,14,11,25,26.10
2008,08,14,11,26,26.20
2008,08,14,11,27,26.30
2008,08,14,11,28,26.30
2008,08,14,11,29,26.20
2008,08,14,11,30,25.90
2008,08,14,11,31,25.50
2008,08,14,11,32,25.20
2008,08,14,11,33,25.10
2008,08,14,11,34,25.00
2008,08,14,11,35,24.90
2008,08,14,11,36,24.90
2008,08,14,11,37,24.90
2008,08,14,11,38,24.90
2008,08,14,11,39,24.90
2008,08,14,11,40,24.90
2008,08,14,11,41,24.90
2008,08,14,11,42,24.90
2008,08,14,11,43,25.10
2008,08,14,11,44,25.10
2008,08,14,11,45,25.20
2008,08,14,11,46,25.40
2008,08,14,11,47,25.60
2008,08,14,11,48,25.80
2008,08,14,11,49,25.90
2008,08,14,11,50,26.10
2008,08,14,11,51,26.40
2008,08,14,11,52,26.30
2008,08,14,11,53,26.40
2008,08,14,11,54,26.10
2008,08,14,11,55,25.80
2008,08,14,11,56,25.50
2008,08,14,11,57,25.30
2008,08,14,11,58,25.20
2008,08,14,11,59,25.10
2008,08,14,12,00,25.10
2008,08,14,12,01,24.90
2008,08,14,12,02,24.70
2008,08,14,12,03,24.50
2008,08,14,12,04,24.30
2008,08,14,12,05,24.20
2008,08,14,12,06,24.00
2008,08,14,12,07,23.80
2008,08,14,12,08,23.90
2008,08,14,12,09,24.10
2008,08,14,12,10,24.20
2008,08,14,12,11,24.40
2008,08,14,12,12,24.70
2008,08,14,12,13,24.70
2008,08,14,12,14,24.80
2008,08,14,12,15,24.70
2008,08,14,12,16,24.70
2008,08,14,12,17,24.60
2008,08,14,12,18,24.50
2008,08,14,12,19,24.30
2008,08,14,12,20,24.30
2008,08,14,12,21,24.20
2008,08,14,12,22,24.10
2008,08,14,12,23,24.10
2008,08,14,12,24,24.20
2008,08,14,12,25,24.20
2008,08,14,12,26,24.10
2008,08,14,12,27,23.90
2008,08,14,12,28,23.80
2008,08,14,12,29,23.70
2008,08,14,12,30,23.70
2008,08,14,12,31,23.80
2008,08,14,12,32,23.80
2008,08,14,12,33,23.90
2008,08,14,12,34,23.90
2008,08,14,12,35,23.90
2008,08,14,12,36,23.90
2008,08,14,12,37,23.80
2008,08,14,12,38,23.70
2008,08,14,12,39,23.70
2008,08,14,12,40,23.60
2008,08,14,12,41,23.60
2008,08,14,12,42,23.60
2008,08,14,12,43,23.70
2008,08,14,12,44,23.70
2008,08,14,12,45,23.80
2008,08,14,12,46,23.90
2008,08,14,12,47,23.90
2008,08,14,12,48,23.90
2008,08,14,12,49,23.90
2008,08,14,12,50,24.00
2008,08,14,12,51,24.10
2008,08,14,12,52,24.20
2008,08,14,12,53,24.30
2008,08,14,12,54,24.40
2008,08,14,12,55,24.40
2008,08,14,12,56,24.60
2008,08,14,12,57,24.60
2008,08,14,12,58,24.60
2008,08,14,12,59,24.50
2008,08,14,13,00,24.40
2008,08,14,13,01,24.30
2008,08,14,13,02,24.10
2008,08,14,13,03,23.80
2008,08,14,13,04,23.40
2008,08,14,13,05,23.00
2008,08,14,13,06,22.80
2008,08,14,13,07,22.60
2008,08,14,13,08,22.30
2008,08,14,13,09,22.00
2008,08,14,13,10,21.70
2008,08,14,13,11,21.50
2008,08,14,13,12,21.30
2008,08,14,13,13,21.30
2008,08,14,13,14,21.30
2008,08,14,13,15,21.30
2008,08,14,13,16,21.30
2008,08,14,13,17,21.40
2008,08,14,13,18,21.40
2008,08,14,13,19,21.50
2008,08,14,13,20,21.60
2008,08,14,13,21,21.60
2008,08,14,13,22,21.70
2008,08,14,13,23,22.10
2008,08,14,13,24,22.30
2008,08,14,13,25,22.60
2008,08,14,13,26,22.80
2008,08,14,13,27,22.90
2008,08,14,13,28,22.90
2008,08,14,13,29,22.90
2008,08,14,13,30,22.80
2008,08,14,13,31,22.80
2008,08,14,13,32,23.00
2008,08,14,13,33,23.10
2008,08,14,13,34,23.20
2008,08,14,13,35,23.20
2008,08,14,13,36,23.20
2008,08,14,13,37,23.10
2008,08,14,13,38,23.00
2008,08,14,13,39,23.00
2008,08,14,13,40,23.00
2008,08,14,13,41,23.10
2008,08,14,13,42,23.20
2008,08,14,13,43,23.30
2008,08,14,13,44,23.40
2008,08,14,13,45,23.60
2008,08,14,13,46,23.70
2008,08,14,13,47,23.80
2008,08,14,13,48,24.00
2008,08,14,13,49,24.10
2008,08,14,13,50,24.10
2008,08,14,13,51,24.10
2008,08,14,13,52,24.10
2008,08,14,13,53,24.10
2008,08,14,13,54,24.00
2008,08,14,13,55,23.80
2008,08,14,13,56,23.70
2008,08,14,13,57,23.70
2008,08,14,13,58,23.80
2008,08,14,13,59,23.80
2008,08,14,14,00,23.80
2008,08,14,14,01,23.80
2008,08,14,14,02,23.80
2008,08,14,14,03,23.90
2008,08,14,14,04,23.80
2008,08,14,14,05,23.80
2008,08,14,14,06,24.00
2008,08,14,14,07,24.10
2008,08,14,14,08,24.20
2008,08,14,14,09,24.20
2008,08,14,14,10,24.10
2008,08,14,14,11,24.10
2008,08,14,14,12,24.10
2008,08,14,14,13,24.10
2008,08,14,14,14,24.10
2008,08,14,14,15,24.10
2008,08,14,14,16,24.10
2008,08,14,14,17,23.90
2008,08,14,14,18,23.80
2008,08,14,14,19,23.70
2008,08,14,14,20,23.60
2008,08,14,14,21,23.60
2008,08,14,14,22,23.70
2008,08,14,14,23,23.70
2008,08,14,14,24,23.80
2008,08,14,14,25,23.80
2008,08,14,14,26,23.70
2008,08,14,14,27,23.70
2008,08,14,14,28,23.70
2008,08,14,14,29,23.80
2008,08,14,14,30,24.10
2008,08,14,14,31,24.30
2008,08,14,14,32,24.50
2008,08,14,14,33,24.60
2008,08,14,14,34,24.80
2008,08,14,14,35,24.80
2008,08,14,14,36,24.90
2008,08,14,14,37,25.10
2008,08,14,14,38,25.20
2008,08,14,14,39,25.40
2008,08,14,14,40,25.50
2008,08,14,14,41,25.70
2008,08,14,14,42,25.90
2008,08,14,14,43,26.10
2008,08,14,14,44,26.10
2008,08,14,14,45,26.00
2008,08,14,14,46,25.90
2008,08,14,14,47,25.90
2008,08,14,14,48,25.90
2008,08,14,14,49,26.00
2008,08,14,14,50,26.20
2008,08,14,14,51,26.30
2008,08,14,14,52,26.40
2008,08,14,14,53,26.60
2008,08,14,14,54,26.70
2008,08,14,14,55,26.80
2008,08,14,14,56,27.00
2008,08,14,14,57,27.20
2008,08,14,14,58,27.30
2008,08,14,14,59,27.40
2008,08,14,15,00,27.40
2008,08,14,15,01,27.30
2008,08,14,15,02,27.10
2008,08,14,15,03,26.60
2008,08,14,15,04,25.90
2008,08,14,15,05,25.20
2008,08,14,15,06,24.60
2008,08,14,15,07,24.10
2008,08,14,15,08,23.70
2008,08,14,15,09,23.40
2008,08,14,15,10,23.30
2008,08,14,15,11,23.20
2008,08,14,15,12,23.20
2008,08,14,15,13,23.30
2008,08,14,15,14,23.40
2008,08,14,15,15,23.60
2008,08,14,15,16,23.80
2008,08,14,15,17,23.90
2008,08,14,15,18,24.10
2008,08,14,15,19,24.30
2008,08,14,15,20,24.50
2008,08,14,15,21,24.80
2008,08,14,15,22,25.00
2008,08,14,15,23,25.30
2008,08,14,15,24,25.60
2008,08,14,15,25,25.80
2008,08,14,15,26,25.90
2008,08,14,15,27,25.90
2008,08,14,15,28,25.80
2008,08,14,15,29,25.70
2008,08,14,15,30,25.60
2008,08,14,15,31,25.40
2008,08,14,15,32,25.40
2008,08,14,15,33,25.60
2008,08,14,15,34,25.70
2008,08,14,15,35,25.80
2008,08,14,15,36,25.80
2008,08,14,15,37,25.80
2008,08,14,15,38,25.80
2008,08,14,15,39,25.80
2008,08,14,15,40,25.90
2008,08,14,15,41,25.90
2008,08,14,15,42,25.90
2008,08,14,15,43,25.90
2008,08,14,15,44,25.90
2008,08,14,15,45,25.80
2008,08,14,15,46,25.80
2008,08,14,15,47,25.90
2008,08,14,15,48,25.80
2008,08,14,15,49,25.60
2008,08,14,15,50,25.40
2008,08,14,15,51,25.20
2008,08,14,15,52,25.10
2008,08,14,15,53,25.00
2008,08,14,15,54,25.00
2008,08,14,15,55,25.10
2008,08,14,15,56,25.10
2008,08,14,15,57,25.10
2008,08,14,15,58,25.10
2008,08,14,15,59,25.10
2008,08,14,16,00,25.10
2008,08,14,16,01,25.20
2008,08,14,16,02,25.30
2008,08,14,16,03,25.40
2008,08,14,16,04,25.40
2008,08,14,16,05,25.50
2008,08,14,16,06,25.60
2008,08,14,16,07,25.60
2008,08,14,16,08,25.50
2008,08,14,16,09,25.20
2008,08,14,16,10,25.00
2008,08,14,16,11,24.80
2008,08,14,16,12,24.70
2008,08,14,16,13,24.60
2008,08,14,16,14,24.40
2008,08,14,16,15,24.30
2008,08,14,16,16,24.10
2008,08,14,16,17,24.10
2008,08,14,16,18,24.10
2008,08,14,16,19,24.10
2008,08,14,16,20,24.10
2008,08,14,16,21,24.10
2008,08,14,16,22,24.10
2008,08,14,16,23,24.10
2008,08,14,16,24,24.10
2008,08,14,16,25,24.20
2008,08,14,16,26,24.20
2008,08,14,16,27,24.10
2008,08,14,16,28,24.10
2008,08,14,16,29,24.10
2008,08,14,16,30,24.10
2008,08,14,16,31,24.10
2008,08,14,16,32,24.10
2008,08,14,16,33,24.20
2008,08,14,16,34,24.20
2008,08,14,16,35,24.20
2008,08,14,16,36,24.20
2008,08,14,16,37,24.20
2008,08,14,16,38,24.30
2008,08,14,16,39,24.30
2008,08,14,16,40,24.30
2008,08,14,16,41,24.40
2008,08,14,16,42,24.40
2008,08,14,16,43,24.50
2008,08,14,16,44,24.50
2008,08,14,16,45,24.50
2008,08,14,16,46,24.60
2008,08,14,16,47,24.70
2008,08,14,16,48,24.70
2008,08,14,16,49,24.70
2008,08,14,16,50,24.80
2008,08,14,16,51,24.80
2008,08,14,16,52,24.80
2008,08,14,16,53,24.80
2008,08,14,16,54,24.90
2008,08,14,16,55,25.00
2008,08,14,16,56,25.10
2008,08,14,16,57,25.30
2008,08,14,16,58,25.40
2008,08,14,16,59,25.40
2008,08,14,17,00,25.40
2008,08,14,17,01,25.40
2008,08,14,17,02,25.50
2008,08,14,17,03,25.60
2008,08,14,17,04,25.60
2008,08,14,17,05,25.60
2008,08,14,17,06,25.50
2008,08,14,17,07,25.40
2008,08,14,17,08,25.40
2008,08,14,17,09,25.30
2008,08,14,17,10,25.30
2008,08,14,17,11,25.20
2008,08,14,17,12,25.10
2008,08,14,17,13,25.00
2008,08,14,17,14,24.90
2008,08,14,17,15,24.90
2008,08,14,17,16,25.10
2008,08,14,17,17,25.20
2008,08,14,17,18,25.40
2008,08,14,17,19,25.50